Location: Newark
(48.0000°N, 67.0000°E)
Time: 00:52:15
(UTC+00:00)

Vanguard 2 - Pass Details

Date: 19 February 2020
Orbit: 553 x 2938 km, 32.9° (Epoch: 01 April)

Event Time Altitude Azimuth Distance (km) Brightness Sun altitude
Exits shadow 01:49:56 - 255° (WSW) 5,399 11.3 -7.9°
Reaches altitude 10° 01:52:02 10° 252° (WSW) 4,979 11.1 -7.5°
Maximum altitude 02:06:10 45° 186° (S) 3,539 10.9 -5.2°
Drops below altitude 10° 02:22:24 10° 122° (ESE) 5,655 13.5 -2.5°
Sets 02:26:49 0° 117° (ESE) 6,523 14.5 -1.8°
